User: anonymous   Login
Location: Unspecified
(0.0000°N, 0.0000°E)
Time: 22:50:50
(UTC+00:00)
Language:

GOES S - Orbit

View from above orbital plane
View from above orbital plane
View from above satellite
View from above satellite

Ground track
Ground track

The orbit data is extracted from the following two-line orbital elements,

1 43226U 18022A   18294.16645340 -.00000186 +00000-0 +00000-0 0  9999
2 43226 000.0194 303.5057 0001038 305.0949 111.4211 01.00271938002394
Epoch (UTC): 21 October 2018 03:59:41
Eccentricity: 0.0001038
inclination: 0.0194°
perigee height: 35782 km
apogee height: 35790 km
right ascension of ascending node: 303.5057°
argument of perigee: 305.0949°
revolutions per day: 1.00271938
mean anomaly at epoch: 111.4211°
orbit number at epoch: 239

The dashed part of the orbit path shows where the satellite is in the earth's shadow,  

DLR